Regional Weather Roundup
Issued by NWS

Home | Current Version | Previous Version | Graphics & Text | Print | Product List | Glossary On
Versions: 1 2 3 4 5 6 7 8 9 10 11 12 13 14 15 16 17 18 19 20 21 22 23 24 25 26 27 28 29 30 31 32 33 34 35 36 37 38 39 40 41 42 43 44 45 46 47 48 49 50
000
ASUS45 KCYS 180510
RWRWY

WYOMING REGIONAL WEATHER ROUNDUP
NATIONAL WEATHER SERVICE CHEYENNE WY
1000 PM MST WED JAN 17 2018

NOTE:  "FAIR" INDICATES FEW OR NO CLOUDS BELOW 12,000 FEET
WITH NO SIGNIFICANT WEATHER AND/OR OBSTRUCTIONS TO VISIBILITY.

WYZ001-180600-
YELLOWSTONE NATIONAL PARK

CITY           SKY/WX    TMP DP  RH WIND       PRES   REMARKS
LK YELLOWSTONE   N/A     22  20  92 CALM      30.31S
W YELLOWSTONE  NOT AVBL

$$
WYZ002>013-054>058-071-098>099-180600-
NORTHERN WYOMING

CITY           SKY/WX    TMP DP  RH WIND       PRES   REMARKS
JACKSON        FAIR       8   5  87 NE6       30.34S WCI  -2
CODY           FAIR      43  15  32 VRB5      30.12F
GREYBULL       FAIR      10   7  87 SE3       30.18F
WORLAND        FAIR      14  11  87 S7        30.16F WCI   4
SHERIDAN       FAIR      25  16  68 CALM      30.03F
BUFFALO        FAIR      36  13  38 SW7       30.07F WCI  30
GILLETTE         N/A    N/A N/A N/A MISG      30.04F
HULETT         FAIR      37  21  52 SW9       30.07F WCI  31
NEWCASTLE      FAIR      28  18  64 E5        30.13F WCI  23

$$
WYZ014>020-022>026-101>103-180600-
CENTRAL WYOMING

CITY           SKY/WX    TMP DP  RH WIND       PRES   REMARKS
BIG PINEY      FAIR      14  11  87 SW3       30.32S
PINEDALE       FAIR      12  10  92 W7        30.31F WCI   2
DUBOIS         FAIR      30  16  55 NW16      30.21S WCI  19
LANDER         FAIR      23  16  74 SW6       30.19F WCI  16
RIVERTON       FAIR      20  12  71 SW3       30.20F
CASPER         FAIR      36  21  54 SW18      30.16F WCI  26
DOUGLAS        FAIR      22  17  81 CALM      30.15F

$$
WYZ021-027>030-104>119-180600-
SOUTHERN WYOMING

CITY           SKY/WX    TMP DP  RH WIND       PRES   REMARKS
EVANSTON       FAIR      29  24  82 S7        30.33F WCI  22
FORT BRIDGER   FAIR      30  26  84 W10       30.35S WCI  21
ROCK SPRINGS   FAIR      29  22  75 SW10      30.31S WCI  20
DIXON            N/A     22  15  73 CALM      30.39R
RAWLINS        FAIR      30  17  58 SW7       30.29F WCI  23
SARATOGA       FAIR      19  12  73 CALM      30.31S
LARAMIE        FAIR      19  11  70 E5        30.24R WCI  12
CHEYENNE       FAIR      34  12  40 SW15      30.19F WCI  24
TORRINGTON     FAIR      23  21  92 E5        30.16S WCI  17

$$



USA.gov is the U.S. government's official web portal to all federal, state and local government web resources and services.